| DS18B20 | SHTC3 | PZEM-004T | WiFi | ||||||||
|---|---|---|---|---|---|---|---|---|---|---|---|
| ID | Date d/m/Y & Time | data1 สูง | data2 ต่ำ | data3 นอก | temp pcb | hum pcb | Volt | Amp | Watt | rssi | Time |
| 17027 | 29/08/2026 09:08:20 | 30.3  | 29.9  | 30.7  | 31.5  | 64.8  | 229.3  | 0.04  | 4.5  | -61  | 09:08 |
| 17026 | 29/08/2026 09:03:37 | 30.2  | 29.9  | 30.5  | 31.2  | 64.9  | 230.3  | 0.04  | 4.5  | -62  | 09:03 |
| 17025 | 29/08/2026 08:58:53 | 30.1  | 29.9  | 30.3  | 31.4  | 65.2  | 231.1  | 0.04  | 4.5  | -63  | 08:58 |
| 17024 | 29/08/2026 08:54:10 | 30.1  | 29.9  | 30.2  | 31.2  | 65.2  | 230.6  | 0.04  | 4.5  | -61  | 08:54 |
| 17023 | 29/08/2026 08:49:27 | 30.1  | 29.9  | 29.9  | 31.1  | 65.3  | 230.9  | 0.04  | 4.5  | -61  | 08:49 |
| 17022 | 29/08/2026 08:44:43 | 30.0  | 29.8  | 29.5  | 31.1  | 65.4  | 231.0  | 0.04  | 4.5  | -61  | 08:44 |
| 17021 | 29/08/2026 08:40:00 | 30.0  | 29.8  | 29.4  | 31.0  | 65.6  | 230.5  | 0.04  | 4.5  | -63  | 08:40 |
| 17020 | 29/08/2026 08:35:17 | 30.0  | 29.8  | 29.4  | 30.8  | 65.8  | 229.9  | 0.04  | 4.5  | -61  | 08:35 |
| 17019 | 29/08/2026 08:30:34 | 30.0  | 29.8  | 29.2  | 30.9  | 65.9  | 230.2  | 0.04  | 4.5  | -61  | 08:30 |
| 17018 | 29/08/2026 08:25:50 | 29.9  | 29.8  | 29.0  | 30.8  | 66.1  | 229.7  | 0.04  | 4.5  | -61  | 08:25 |
| 17017 | 29/08/2026 08:21:07 | 29.9  | 29.8  | 28.8  | 30.8  | 66.1  | 227.9  | 0.04  | 4.5  | -61  | 08:21 |
| 17016 | 29/08/2026 08:16:24 | 29.9  | 29.8  | 28.7  | 30.9  | 66.2  | 230.0  | 0.04  | 4.5  | -61  | 08:16 |
| 17015 | 29/08/2026 08:11:41 | 29.8  | 29.8  | 28.6  | 30.7  | 66.2  | 227.6  | 0.04  | 4.5  | -62  | 08:11 |
| 17014 | 29/08/2026 08:06:57 | 29.8  | 29.8  | 28.7  | 30.8  | 66.4  | 226.9  | 0.04  | 4.5  | -62  | 08:06 |
| 17013 | 29/08/2026 08:02:14 | 29.8  | 29.8  | 28.5  | 30.7  | 66.1  | 228.4  | 0.04  | 4.5  | -61  | 08:02 |
| 17012 | 29/08/2026 07:57:31 | 29.8  | 29.7  | 28.4  | 30.7  | 66.3  | 229.5  | 0.04  | 4.5  | -61  | 07:57 |
| 17011 | 29/08/2026 07:52:48 | 29.8  | 29.7  | 28.5  | 30.7  | 66.2  | 227.8  | 0.04  | 4.5  | -61  | 07:52 |
| 17010 | 29/08/2026 07:48:05 | 29.7  | 29.7  | 28.4  | 30.7  | 66.3  | 230.8  | 0.04  | 4.5  | -61  | 07:48 |
| 17009 | 29/08/2026 07:43:21 | 29.7  | 29.7  | 28.1  | 30.7  | 66.5  | 230.8  | 0.04  | 4.5  | -61  | 07:43 |
| 17008 | 29/08/2026 07:38:38 | 29.7  | 29.7  | 28.1  | 30.6  | 66.5  | 230.2  | 0.04  | 4.5  | -61  | 07:38 |
| 17007 | 29/08/2026 07:33:55 | 29.6  | 29.7  | 27.9  | 30.7  | 66.6  | 230.4  | 0.04  | 4.5  | -61  | 07:33 |
| 17006 | 29/08/2026 07:29:11 | 29.6  | 29.7  | 27.8  | 30.6  | 66.5  | 231.1  | 0.04  | 4.5  | -62  | 07:29 |
| 17005 | 29/08/2026 07:24:28 | 29.6  | 29.8  | 27.7  | 30.6  | 66.5  | 230.3  | 0.04  | 4.5  | -61  | 07:24 |
| 17004 | 29/08/2026 07:19:45 | 29.6  | 29.8  | 27.5  | 30.7  | 66.6  | 230.9  | 0.04  | 4.5  | -57  | 07:19 |